COSMOS 2571

Satellite information

Favourite Embed

Satellite Type and Status

PAYLOADIN ORBIT

Key statistics

Satellite COSMOS 2571 at a glance.

Uptime

779

Days in orbit

Revolutions

≈ 14.0

Per day

Orbit

LEO

Low Earth Orbit

Inclination

67.2

Latest

Satellite identification and parameters

Extended collection of information and parameters for COSMOS 2571.

Object identification

Identified? True

Debris? False

Object name: COSMOS 2571

International designator: 2023-165C

Object number (NORAD): 58172

Object ID (CCSDS): 58172

Country: COMMONWEALTH OF INDEPENDENT STATES (CIS)

Current information (Y/N): Y

RCS size: MEDIUM

Orbital parameters

Period: 103.055 minutes

Inclination: 67.1504 deg

SMA: 7281.254 km

Apoapsis: 909.497 km

Periapsis: 896.741 km

RAAN: 18.6435 deg

Eccentricy: 0.0008759

Argument of periapsis: 134.1995 deg

Mean anomaly: 225.9811 deg

Mean motion: 13.97312325 rev/day

Mean motion (dot): -0.00000015 rev/day2

B* drag term: 0.000043117 1/REarth

Two-line elements (TLE)

Creation date: Dec. 13, 2025, 7:36 p.m.

Reference frame: TEME

Reference center: EARTH

Epoch: Dec. 13, 2025, 4:52 p.m. UTC

TLE line 0: 0 COSMOS 2571

TLE line 1: 1 58172U 23165C 25347.70282773 -.00000015 00000-0 43117-4 0 9994

TLE line 2: 2 58172 67.1504 18.6435 0008759 134.1995 225.9811 13.97312325108447

Live tracking on map

Real-time ground track for satellite COSMOS 2571.

In-orbit conjunctions

There are no conjunctions computed for COSMOS 2571, at the moment. Check back to stay up to date, as we update our databases every day.

Go to all conjunctions

Associated space launch

Note: Payload identity uncertain. Multiple other military payloads that are not identified may be on board. Lotos-S1 spacecraft is a part of the Liana constellation, designed for orbital electronic intelligence.

COSMOS 2571 was lifted into orbit during the mission ‘Soyuz 2.1b | Kosmos 2570 (Lotos-S1 #8)’, on board a Soyuz 2.1b space rocket.

The launch took place on Oct. 27, 2023, 6:04 a.m. from 43/3 (43L).

For more information about the launch, click the button.

Launch to space Soyuz 2.1b | Kosmos 2570 (Lotos-S1 #8)
Soyuz 2.1b | Kosmos 2570 (Lotos-S1 #8)

Agency: N/A

Status: Launch Successful

Launch date: Oct. 27, 2023, 6:04 a.m. UTC

Rocket: Soyuz 2.1b

Launch pad: 43/3 (43L)

Location: Plesetsk Cosmodrome, Russian Federation

...

Latest news about this satellite

There are no fresh news available about this satellite. Check back as we update our databases every day.


Newsletter sign-up

Weekly statistics, charts and insights to help you stay on top of the space industry.